STARLINK-32199 (60320 NORAD) Tracking and Keplerian Element Data

This shows tracking and keplerian element data for the satellite.

Feedback or suggestion? Click here.




ElementValue
Catalog60320
NameSTARLINK-32199
Epoch Orbit1306
Epoch Day286.83741493
Epoch Year2024
RAAN166.0719
Inclination53.1595
Eccentricity0.0001265
Argument of Perigee76.2477
Mean Anonmoly283.8669
Mean Motion15.3964997
Decay Rate3.684E-05
L11 60320U 24133V 24286.83741493 .00003684 00000+0 10195-3 0 9994
L22 60320 53.1595 166.0719 0001265 76.2477 283.8669 15.39649970 13063



Live tracking and technical data element details for STARLINK-32199 (NORAD 60320). STARLINK-32199 can be tracked NOW for your location showing map with azimuth and elevation plus other details from your city location.







IsCatalogInMostPopularTable: catalog: 60320, numindb: 8
Update: records affected: 1



GetName: 60320 STARLINK-32199

Hit Count: updated at: Tue, 03 Dec 2024 03:13:04 GMT